Home   Weather   Khartoum   Past weeks
Flag for Sudan

Past Weather in Khartoum, Sudan — Yesterday and Last 2 Weeks

Now
84 °F

Clear.


Feels Like: 81 °F
Forecast: 102 / 76 °F
Wind: 16 mph from Northeast

Location: Khartoum Airport

Current Time: Apr 3, 2020 at 4:36:20 am

Latest Report: Apr 3, 2020 at 4:00 am


Visibility: 10 mi

Pressure: 29.80 "Hg

Humidity: 10%

Dew Point: 23 °F

Location of KhartoumLocation

Past Weather in Khartoum — Graph

°F

Khartoum Temperature Yesterday

Maximum temperature yesterday: 108 °F (at 1:00 pm)
Minimum temperature yesterday: 84 °F (at 4:00 am)
Average temperature yesterday: 95 °F

High & Low Weather Summary for the Past Weeks

 TemperatureHumidityPressure
High109 °F (Mar 27, 1:00 pm)24% (Mar 27, 5:00 am)30.09 "Hg (Mar 27, 5:00 am)
Low63 °F (Mar 20, 6:00 am)4% (Mar 23, 11:30 am)29.68 "Hg (Mar 26, 3:30 pm)
Average87 °F10%29.85 "Hg
* Reported Mar 19 3:30 am — Apr 3 3:00 am, Khartoum. Weather by CustomWeather, © 2020

Note: Actual official high and low records may vary slightly from our data, if they occured in-between our weather recording intervals... More about our weather records

Khartoum Weather History for the Previous 24 Hours

Scroll right to see more
 ConditionsComfort  
Time TempWeatherWind HumidityBarometerVisibility
3:00 am
Fri, Apr 3
86 °FClear.14 mph11%29.77 "Hg10 mi
1:00 am88 °FClear.17 mph11%29.80 "Hg10 mi
12:00 am90 °FClear.16 mph13%29.80 "Hg10 mi
11:00 pm
Thu, Apr 2
91 °FClear.15 mph10%29.80 "Hg10 mi
10:00 pm93 °FClear.15 mph12%29.80 "Hg10 mi
9:00 pm95 °FClear.14 mph10%29.80 "Hg10 mi
8:00 pm97 °FClear.13 mph10%29.77 "Hg10 mi
7:00 pm100 °FClear.13 mph9%29.74 "Hg10 mi
6:00 pm102 °FSunny.N/A8%29.74 "Hg10 mi
5:00 pm106 °FSunny.13 mph7%29.71 "Hg10 mi
4:00 pm108 °FSunny.15 mph7%29.71 "Hg10 mi
3:00 pm108 °FSunny.13 mph7%29.74 "Hg10 mi
2:00 pm108 °FSunny.14 mph7%29.74 "Hg10 mi
1:00 pm108 °FSunny.18 mph7%29.77 "Hg10 mi
11:00 am106 °FSunny.12 mph6%29.83 "Hg10 mi
10:00 am102 °FSunny.16 mph7%29.83 "Hg10 mi
9:00 am95 °FSunny.12 mph10%29.83 "Hg10 mi
8:00 am86 °FSunny.7 mph11%29.83 "Hg10 mi
7:00 am84 °FSunny.9 mph13%29.83 "Hg10 mi
6:00 am84 °FSunny.9 mph13%29.80 "Hg10 mi
5:00 am84 °FClear.15 mph11%29.77 "Hg10 mi
4:00 am84 °FClear.12 mph11%29.77 "Hg10 mi
Weather by CustomWeather, © 2020

See weather overview

Advertising